TimeCDT,TemperatureF,Dew PointF,Humidity,Sea Level PressureIn,VisibilityMPH,Wind Direction,Wind SpeedMPH,Gust SpeedMPH,PrecipitationIn,Events,Conditions,WindDirDegrees,DateUTC
12:53 AM,43.0,33.1,68,30.28,10.0,NW,3.5,-,N/A,,Clear,310,2012-09-23 05:53:00
1:53 AM,43.0,33.1,68,30.29,10.0,Calm,Calm,-,N/A,,Clear,0,2012-09-23 06:53:00
2:53 AM,42.1,32.0,67,30.29,10.0,North,3.5,-,N/A,,Clear,350,2012-09-23 07:53:00
3:53 AM,41.0,32.0,70,30.29,10.0,North,4.6,-,N/A,,Clear,360,2012-09-23 08:53:00
4:53 AM,39.9,32.0,73,30.30,10.0,North,4.6,-,N/A,,Clear,350,2012-09-23 09:53:00
5:53 AM,39.0,30.9,73,30.31,10.0,North,4.6,-,N/A,,Clear,360,2012-09-23 10:53:00
6:53 AM,37.0,30.9,79,30.33,10.0,North,4.6,-,N/A,,Clear,360,2012-09-23 11:53:00
7:53 AM,37.9,30.9,76,30.35,10.0,North,4.6,-,N/A,,Clear,360,2012-09-23 12:53:00
8:53 AM,45.0,34.0,65,30.36,10.0,NNE,3.5,-,N/A,,Clear,30,2012-09-23 13:53:00
9:53 AM,52.0,34.0,50,30.37,10.0,North,3.5,-,N/A,,Clear,10,2012-09-23 14:53:00
10:53 AM,55.9,33.1,42,30.37,10.0,Calm,Calm,-,N/A,,Clear,0,2012-09-23 15:53:00
11:53 AM,59.0,36.0,42,30.36,10.0,Calm,Calm,-,N/A,,Clear,0,2012-09-23 16:53:00
12:53 PM,61.0,33.1,35,30.34,10.0,Variable,4.6,-,N/A,,Clear,0,2012-09-23 17:53:00
1:53 PM,63.0,34.0,34,30.31,10.0,Variable,5.8,-,N/A,,Clear,0,2012-09-23 18:53:00
2:53 PM,64.0,32.0,30,30.29,10.0,North,9.2,-,N/A,,Clear,350,2012-09-23 19:53:00
3:53 PM,66.0,33.1,29,30.27,10.0,NNW,4.6,-,N/A,,Clear,340,2012-09-23 20:53:00
4:53 PM,66.0,30.9,27,30.25,10.0,West,4.6,-,N/A,,Clear,270,2012-09-23 21:53:00
5:53 PM,64.0,32.0,30,30.24,10.0,Calm,Calm,-,N/A,,Clear,0,2012-09-23 22:53:00
6:53 PM,62.1,28.9,29,30.24,10.0,Calm,Calm,-,N/A,,Clear,0,2012-09-23 23:53:00
7:53 PM,61.0,28.9,30,30.24,10.0,SSE,3.5,-,N/A,,Clear,150,2012-09-24 00:53:00
8:53 PM,57.0,30.9,37,30.25,10.0,East,4.6,-,N/A,,Clear,80,2012-09-24 01:53:00
9:53 PM,55.9,28.9,36,30.25,10.0,East,3.5,-,N/A,,Clear,100,2012-09-24 02:53:00
10:53 PM,55.0,28.9,37,30.25,10.0,ESE,3.5,-,N/A,,Clear,110,2012-09-24 03:53:00
11:53 PM,52.0,30.0,43,30.25,10.0,East,3.5,-,N/A,,Clear,100,2012-09-24 04:53:00